Printer-friendly version

IAU Minor Planet Center

Minor Planet Center

9P/Tempel

Orbital Elements

The following orbital elements are taken from MPC 62880:
9P/Tempel
Epoch 2010 Dec. 30.0 TT = JDT 2455560.5
T 2011 Jan. 12.3656 TT                                  MPC
q   1.510301             (2000.0)            P               Q
n   0.1785067      Peri.  178.9231      -0.3770555      +0.9103837
a   3.123919       Node    68.9072      -0.8511227      -0.2680317
e   0.516537       Incl.   10.5224      -0.3652661      -0.3152149
P   5.52
From 4793 observations 1967-2006, mean residual 0".6.  Nongravitational
     parameters A1 = +0.02, A2 = +0.0017.
Elements are also available for the current standard epoch:
9P/Tempel
Epoch 2009 June 18.0 TT = JDT 2455000.5
T 2011 Jan. 12.2668 TT                                  MPC
q   1.509240             (2000.0)            P               Q
n   0.1784930      Peri.  178.9296      -0.3766211      +0.9105528
a   3.124078       Node    68.9277      -0.8512770      -0.2676199
e   0.516901       Incl.   10.5245      -0.3653547      -0.3150765
P   5.52
An explanation of the orbital elements is available.

These orbital elements are also available in forms suitable for loading into a number of popular planetarium-type software programs.


Ephemeris

The following ephemeris is at intervals of five days. A daily ephemeris covering the same time interval is also available.

Personalized ephemerides for this (and other) objects may be generated using the Minor Planet & Comet Ephemeris Service.

Recent magnitude estimates for this comet (as reported to the ICQ) may be available.

Date    TT    R. A. (2000) Decl.     Delta      r     Elong.  Phase   m1    m2

WARNING!

This comet gets close to the sun during the period covered in the ephemeris below. Observers are warned to be wary of observing comets near the sun. NEVER point any kind of optical instrument at the sun--instant blindness will be the probable result.

2009 06 08 06 19.40 +27 36.8 5.065 4.109 17.6 4.3 21.5 2009 06 13 06 25.10 +27 36.0 5.071 4.094 14.2 3.5 21.4 2009 06 18 06 30.88 +27 34.7 5.071 4.078 11.0 2.7 21.4 2009 06 23 06 36.73 +27 32.7 5.067 4.063 7.9 2.0 21.3 2009 06 28 06 42.64 +27 30.2 5.058 4.047 5.4 1.4 21.2 2009 07 03 06 48.58 +27 27.0 5.044 4.031 4.5 1.1 21.2 2009 07 08 06 54.56 +27 23.3 5.025 4.015 5.9 1.5 21.2 2009 07 13 07 00.56 +27 18.9 5.001 3.998 8.5 2.2 21.3 2009 07 18 07 06.58 +27 14.0 4.972 3.982 11.5 2.9 21.3 2009 07 23 07 12.60 +27 08.5 4.939 3.965 14.8 3.7 21.3 2009 07 28 07 18.61 +27 02.6 4.900 3.948 18.1 4.6 21.3 2009 08 02 07 24.60 +26 56.1 4.858 3.930 21.4 5.4 21.3 2009 08 07 07 30.57 +26 49.3 4.810 3.913 24.8 6.2 21.4 2009 08 12 07 36.49 +26 42.1 4.759 3.895 28.2 7.1 21.4 2009 08 17 07 42.37 +26 34.6 4.703 3.878 31.7 7.9 21.4 2009 08 22 07 48.19 +26 26.8 4.643 3.860 35.1 8.7 21.4 2009 08 27 07 53.93 +26 18.9 4.579 3.841 38.6 9.5 21.4 2009 09 01 07 59.58 +26 11.0 4.510 3.823 42.2 10.2 21.3 2009 09 06 08 05.14 +26 03.1 4.439 3.804 45.7 10.9 21.3 2009 09 11 08 10.59 +25 55.3 4.364 3.785 49.3 11.6 21.3 2009 09 16 08 15.92 +25 47.8 4.285 3.766 53.0 12.3 21.3 2009 09 21 08 21.10 +25 40.7 4.204 3.747 56.7 12.9 21.2 2009 09 26 08 26.13 +25 34.1 4.119 3.728 60.4 13.5 21.2 2009 10 01 08 30.99 +25 28.2 4.032 3.708 64.2 14.1 21.2 2009 10 06 08 35.65 +25 23.2 3.943 3.688 68.1 14.6 21.1 2009 10 11 08 40.11 +25 19.1 3.852 3.668 72.0 15.0 21.1 2009 10 16 08 44.34 +25 16.2 3.759 3.648 76.0 15.4 21.0 2009 10 21 08 48.31 +25 14.6 3.665 3.627 80.0 15.7 21.0 2009 10 26 08 52.00 +25 14.6 3.570 3.607 84.2 15.9 20.9 2009 10 31 08 55.38 +25 16.3 3.474 3.586 88.4 16.1 20.8 2009 11 05 08 58.44 +25 20.0 3.378 3.565 92.7 16.1 20.8 2009 11 10 09 01.13 +25 25.8 3.282 3.543 97.1 16.1 20.7 2009 11 15 09 03.42 +25 33.8 3.187 3.522 101.6 16.0 20.6 2009 11 20 09 05.29 +25 44.4 3.093 3.500 106.2 15.7 20.5 2009 11 25 09 06.69 +25 57.6 3.001 3.478 111.0 15.4 20.4 2009 11 30 09 07.59 +26 13.4 2.911 3.456 115.8 14.9 20.3 2009 12 05 09 07.97 +26 32.0 2.823 3.434 120.8 14.3 20.2 2009 12 10 09 07.79 +26 53.3 2.740 3.411 125.9 13.5 20.1 2009 12 15 09 07.01 +27 17.3 2.660 3.388 131.0 12.7 20.0 2009 12 20 09 05.63 +27 43.7 2.584 3.365 136.3 11.6 19.9 2009 12 25 09 03.62 +28 12.3 2.514 3.342 141.7 10.5 19.8 2009 12 30 09 00.99 +28 42.6 2.450 3.319 147.1 9.3 19.7 2010 01 04 08 57.77 +29 14.1 2.392 3.295 152.4 7.9 19.5 2010 01 09 08 53.96 +29 46.1 2.341 3.271 157.6 6.6 19.4 2010 01 14 08 49.64 +30 18.0 2.296 3.247 162.3 5.3 19.3 2010 01 19 08 44.87 +30 48.9 2.260 3.223 166.0 4.2 19.2 2010 01 24 08 39.76 +31 18.0 2.231 3.199 167.5 3.8 19.1 2010 01 29 08 34.43 +31 44.5 2.209 3.174 166.1 4.3 19.1 2010 02 03 08 29.00 +32 07.9 2.195 3.149 162.5 5.4 19.1 2010 02 08 08 23.62 +32 27.7 2.189 3.124 157.7 6.9 19.2 2010 02 13 08 18.42 +32 43.5 2.190 3.099 152.4 8.5 19.2 2010 02 18 08 13.54 +32 55.0 2.198 3.073 146.9 10.1 19.3 2010 02 23 08 09.11 +33 02.4 2.212 3.048 141.4 11.7 19.3 19.4 2010 02 28 08 05.23 +33 05.8 2.231 3.022 135.9 13.2 19.3 19.4 2010 03 05 08 01.98 +33 05.5 2.256 2.996 130.5 14.6 19.2 19.5 2010 03 10 07 59.40 +33 01.7 2.285 2.970 125.2 15.9 19.1 19.5 2010 03 15 07 57.55 +32 54.8 2.317 2.943 120.0 17.0 19.0 19.6 2010 03 20 07 56.45 +32 45.2 2.353 2.917 115.0 18.0 19.0 19.6 2010 03 25 07 56.10 +32 33.1 2.391 2.890 110.1 18.9 18.9 19.7 2010 03 30 07 56.47 +32 18.8 2.430 2.863 105.4 19.6 18.8 19.7 2010 04 04 07 57.56 +32 02.6 2.471 2.836 100.9 20.3 18.8 19.7 2010 04 09 07 59.32 +31 44.6 2.513 2.808 96.5 20.8 18.7 19.8 2010 04 14 08 01.73 +31 25.0 2.555 2.781 92.3 21.1 18.6 19.8 2010 04 19 08 04.76 +31 03.7 2.596 2.753 88.2 21.4 18.6 19.8 2010 04 24 08 08.36 +30 41.0 2.637 2.725 84.2 21.5 18.5 19.8 2010 04 29 08 12.49 +30 16.9 2.677 2.697 80.4 21.6 18.4 19.8 2010 05 04 08 17.12 +29 51.2 2.715 2.669 76.6 21.6 18.3 19.8 2010 05 09 08 22.21 +29 24.0 2.752 2.641 73.0 21.4 18.2 19.9 2010 05 14 08 27.73 +28 55.3 2.788 2.612 69.6 21.3 18.2 19.9 2010 05 19 08 33.65 +28 24.9 2.821 2.584 66.2 21.0 18.1 19.8 2010 05 24 08 39.93 +27 52.8 2.852 2.555 62.9 20.7 18.0 19.8 2010 05 29 08 46.55 +27 19.1 2.881 2.526 59.7 20.3 17.9 19.8 2010 06 03 08 53.48 +26 43.5 2.907 2.497 56.6 19.8 17.8 19.8 2010 06 08 09 00.70 +26 06.1 2.931 2.468 53.6 19.3 17.6 19.8 2010 06 13 09 08.19 +25 26.8 2.952 2.439 50.7 18.8 17.5 19.7 2010 06 18 09 15.93 +24 45.5 2.971 2.410 47.9 18.2 17.4 19.7 2010 06 23 09 23.90 +24 02.1 2.986 2.381 45.1 17.6 17.3 19.7 2010 06 28 09 32.09 +23 16.7 3.000 2.352 42.4 17.0 17.2 19.6 2010 07 03 09 40.48 +22 29.2 3.010 2.322 39.8 16.3 17.0 19.6 2010 07 08 09 49.06 +21 39.5 3.018 2.293 37.3 15.6 16.9 19.6 2010 07 13 09 57.82 +20 47.7 3.023 2.263 34.8 14.8 16.8 19.5

Back to Observable Comets


Valid HTML 4.01!